Location: Harwich
(41.6860°N, 70.0760°W)
Time: 08:42:55
(UTC-04:00)

Envisat - Visible Passes

Search period start: 30 September 2022 00:00
Search period end: 10 October 2022 00:00
Orbit: 764 x 765 km, 98.2° (Epoch: 29 September)

Date Brightness Start Highest point End Pass type
(mag) Time Alt. Az. Time Alt. Az. Time Alt. Az.
30 Sep 5.9 03:37:00 10° ENE 03:38:52 12° E 03:40:44 10° ESE visible
30 Sep 2.9 05:13:20 10° N 05:18:26 79° WNW 05:23:30 10° SSW visible
01 Oct 4.0 04:36:32 10° NNE 04:41:27 47° E 04:46:18 10° S visible
02 Oct 5.3 04:00:25 10° NE 04:04:15 21° E 04:08:04 10° SE visible
02 Oct 3.3 05:38:37 10° N 05:43:27 45° WNW 05:48:16 10° SW visible
03 Oct 3.0 05:01:29 10° NNE 05:06:36 82° ESE 05:11:40 10° S visible
04 Oct 4.4 04:24:51 10° NNE 04:29:32 36° E 04:34:12 10° SSE visible
04 Oct 3.9 06:04:08 10° N 06:08:22 27° WNW 06:12:36 10° WSW visible
05 Oct 5.6 03:49:05 10° NE 03:52:17 17° E 03:55:26 10° SE visible
05 Oct 3.0 05:26:39 10° N 05:31:39 58° WNW 05:36:37 10° SSW visible
06 Oct 3.4 04:49:40 10° NNE 04:54:44 64° ESE 04:59:45 10° S visible
07 Oct 4.9 04:13:14 10° NE 04:17:36 28° E 04:21:57 10° SSE visible
07 Oct 3.6 05:52:03 10° N 05:56:36 34° WNW 06:01:08 10° SW visible
08 Oct 5.9 03:38:06 10° ENE 03:40:16 13° E 03:42:27 10° ESE visible
08 Oct 2.9 05:14:44 10° N 05:19:49 75° WNW 05:24:52 10° SSW visible
09 Oct 3.8 04:37:53 10° NNE 04:42:50 49° E 04:47:44 10° S visible
09 Oct 4.2 06:17:45 10° NNW 06:21:28 21° WNW 06:25:10 10° WSW visible
